YG2BMZ Weather Reports


time (UTC)temp
C
wind
direction
speed
KPH
gust
KPH
rain 1hr
cm
rain 24hr
cm
rain mn
cm
humidity
%
barometer
mb
20260505192622 30 0.0 0.0 0.00 0.00 0.00 83 1019.8
20260505192121 30 0.0 0.0 0.00 0.00 0.00 83 1019.9
20260505191619 30 0.0 0.0 0.00 0.00 0.00 83 1019.8
20260505191114 30 0.0 0.0 0.00 0.00 0.00 83 1019.9
20260505190612 30 0.0 0.0 0.00 0.00 0.00 83 1020.0
20260505190110 30 0.0 0.0 0.00 0.00 0.00 82 1020.0
20260505185609 30 0.0 0.0 0.00 0.00 0.00 82 1020.0
20260505185107 30 0.0 0.0 0.00 0.00 0.00 82 1020.0
20260505184605 30 0.0 0.0 0.00 0.00 0.00 82 1020.1
20260505184105 30 0.0 0.0 0.00 0.00 0.00 82 1020.1
20260505183603 31 0.0 0.0 0.00 0.00 0.00 82 1020.1
20260505172051 31 0.0 0.0 0.00 0.00 0.00 80 1020.6
20260505171549 31 0.0 0.0 0.00 0.00 0.00 80 1020.7
20260505171047 31 0.0 0.0 0.00 0.00 0.00 80 1020.9
20260505170547 31 0.0 0.0 0.00 0.00 0.00 80 1021.0
20260505170045 31 0.0 0.0 0.00 0.00 0.00 80 1021.0
20260505165543 31 0.0 0.0 0.00 0.00 0.00 80 1021.1
20260505165042 31 0.0 0.0 0.00 0.00 0.00 80 1021.2
20260505164540 31 0.0 0.0 0.00 0.00 0.00 80 1021.3
20260505162036 31 0.0 0.0 0.00 0.00 0.00 80 1021.3
20260505161536 31 0.0 0.0 0.00 0.00 0.00 80 1021.3
20260505153024 31 0.0 0.0 0.00 0.00 0.00 80 1021.2
20260505152523 31 0.0 0.0 0.00 0.00 0.00 79 1021.1
20260505151018 31 0.0 0.0 0.00 0.00 0.00 79 1020.9
20260505150517 31 0.0 0.0 0.00 0.00 0.00 79 1020.8
20260505124945 32 0.0 0.0 0.00 0.00 0.00 76 1020.6
20260505124445 32 0.0 0.0 0.00 0.00 0.00 75 1020.7
20260505123944 32 0.0 0.0 0.00 0.00 0.00 75 1020.5
20260505123442 32 0.0 0.0 0.00 0.00 0.00 75 1020.5
20260505120936 32 0.0 0.0 0.00 0.00 0.00 75 1020.5
20260505120435 32 0.0 0.0 0.00 0.00 0.00 75 1020.4
20260505115434 32 0.0 0.0 0.00 0.00 0.00 75 1019.8
20260505114933 32 0.0 0.0 0.00 0.00 0.00 75 1019.5
20260505114431 32 0.0 0.0 0.00 0.00 0.00 75 1019.3
20260505113930 32 0.0 0.0 0.00 0.00 0.00 75 1019.4
20260505113429 32 0.0 0.0 0.00 0.00 0.00 75 1019.4
20260505112930 32 0.0 0.0 0.00 0.00 0.00 76 1019.3
20260505111927 32 0.0 0.0 0.00 0.00 0.00 75 1019.2
20260505111429 32 0.0 0.0 0.00 0.00 0.00 75 1019.2
20260505110924 32 0.0 0.0 0.00 0.00 0.00 76 1019.2
20260505110424 32 0.0 0.0 0.00 0.00 0.00 76 1019.1
20260505101411 33 0.0 0.0 0.00 0.00 0.00 75 1018.5
20260505010514 30 0.0 0.0 0.00 0.00 0.00 80 1021.4
20260505010012 30 0.0 0.0 0.00 0.00 0.00 81 1021.4
20260505005510 30 0.0 0.0 0.00 0.00 0.00 81 1021.4
20260505005009 30 0.0 0.0 0.00 0.00 0.00 81 1021.3
20260505004007 30 0.0 0.0 0.00 0.00 0.00 81 1021.2
20260505003505 30 0.0 0.0 0.00 0.00 0.00 82 1021.1
20260505003004 30 0.0 0.0 0.00 0.00 0.00 82 1021.1
20260505002001 30 0.0 0.0 0.00 0.00 0.00 82 1020.9
20260505001459 30 0.0 0.0 0.00 0.00 0.00 82 1020.9
20260504235454 30 0.0 0.0 0.00 0.00 0.00 83 1020.6
20260504233950 29 0.0 0.0 0.00 0.00 0.00 83 1020.4
20260504233448 29 0.0 0.0 0.00 0.00 0.00 83 1020.4
20260504232946 29 0.0 0.0 0.00 0.00 0.00 83 1020.4
20260504232445 29 0.0 0.0 0.00 0.00 0.00 83 1020.3
20260504231443 29 0.0 0.0 0.00 0.00 0.00 83 1020.2
20260504230942 29 0.0 0.0 0.00 0.00 0.00 83 1020.1
20260504225939 29 0.0 0.0 0.00 0.00 0.00 83 1020.0
20260504225438 29 0.0 0.0 0.00 0.00 0.00 83 1019.9
20260504224940 29 0.0 0.0 0.00 0.00 0.00 83 1019.9
20260504223936 30 0.0 0.0 0.00 0.00 0.00 83 1019.8
20260504222931 29 0.0 0.0 0.00 0.00 0.00 83 1019.7
20260504222430 30 0.0 0.0 0.00 0.00 0.00 83 1019.7
20260504221928 29 0.0 0.0 0.00 0.00 0.00 83 1019.7
20260504221427 30 0.0 0.0 0.00 0.00 0.00 83 1019.6
20260504215923 30 0.0 0.0 0.00 0.00 0.00 83 1019.6
20260504215421 30 0.0 0.0 0.00 0.00 0.00 82 1019.7
20260504213917 30 0.0 0.0 0.00 0.00 0.00 82 1019.7
20260504213416 30 0.0 0.0 0.00 0.00 0.00 82 1019.7
20260504210911 30 0.0 0.0 0.00 0.00 0.00 82 1019.6
20260504205909 30 0.0 0.0 0.00 0.00 0.00 82 1019.5
20260504205407 30 0.0 0.0 0.00 0.00 0.00 81 1019.6
20260504204404 30 0.0 0.0 0.00 0.00 0.00 81 1019.6
20260504203902 30 0.0 0.0 0.00 0.00 0.00 82 1019.6
20260504203401 30 0.0 0.0 0.00 0.00 0.00 81 1019.6
20260504202358 30 0.0 0.0 0.00 0.00 0.00 81 1019.6
20260504201856 30 0.0 0.0 0.00 0.00 0.00 81 1019.6
20260504201354 30 0.0 0.0 0.00 0.00 0.00 81 1019.5
20260504200852 30 0.0 0.0 0.00 0.00 0.00 81 1019.6
20260504195348 30 0.0 0.0 0.00 0.00 0.00 81 1019.7
20260504194847 30 0.0 0.0 0.00 0.00 0.00 81 1019.8
20260504193343 30 0.0 0.0 0.00 0.00 0.00 81 1019.8
20260504192842 30 0.0 0.0 0.00 0.00 0.00 81 1019.8